Location: Newark
(13.6797°N, 8.5297°E)
Time: 04:00:56
(UTC+00:00)

A-11 Canister half - Pass Details

Date: 22 January 2020
Orbit: 1517 x 1683 km, 47.2° (Epoch: 16 February)

Event Time Altitude Azimuth Distance (km) Brightness Sun altitude
Rises 19:12:29 0° 182° (S) 4,859 11.8 -26.6°
Reaches altitude 10° 19:17:30 10° 161° (SSE) 3,840 11.0 -27.8°
Enters shadow 19:21:16 15° 138° (SE) 3,420 10.6 -28.7°
Maximum altitude 19:22:42 16° 128° (SE) 3,376 - -29.0°
Drops below altitude 10° 19:27:47 10° 95° (E) 3,769 - -30.2°
Sets 19:32:32 0° 74° (ENE) 4,722 - -31.3°
